CZ-6A DEB, 54613

Orbit data source: Space-Track

CZ-6A DEB, 54613 is space debris in SSO originally from a launch on Fri, 11 Nov 2022 UTC launched from the Taiyaun Space Center, China (TSC). Debris objects in space refer to the collection of defunct objects orbiting the Earth. Examples of debris include non-operational satellites, rocket bodies, and fragments generated from explosions, collisions, or faulty payload assembly.

Loading next visibility...
Identifier
54613, 2022-151NP
Orbit
SSO
Country
Flag of CNCN / PRC
Related business
Manufacturer
SAST
Mission
Spacecraft
Bus & Motor
Unknown
Mass
Unknown
Launch date (UTC)
2022-11-11 (3 years ago)
Launch vehicle
Unknown
Launch site
Taiyaun Space Center, China (TSC)
Object type
Payload
Rocket body
Debris
Shape & HBR
Unknown shape, 0.1 m
Radar Cross Section
Small (<0.1 m²)

Expand to show TLE details & history
Last TLE update: 10 hours ago

TLE from 10 hours ago
0 CZ-6A DEB
1 54613U 22151NP  26130.47193118  .00000253  00000-0  16703-3 0  9996
2 54613  98.8454 129.1660 0052203  68.9205 291.7536 14.09524747178873
Epoch: 2026-05-10T11:19Z
TLE epoch observation values (Epoch: 2026-05-10T11:19:34.853Z)
Latitude
-0.00005°
Longitude
90.99626°
Altitude
850.057 km
Speed
7.435 km/s
True Right ascension
08h 36m 39s
True Declination
0° 00' 00"
Sunlit
Object was in daylight at epoch
Visualization orbit readout
Latitude
Unknown
Longitude
Unknown
Altitude
Unknown
Speed
Unknown
Apparent Right ascension
Unknown
Apparent Declination
Unknown
Sunlit
N/A
Visualization observer readout
Local Sidereal Time
05:31:51
Azimuth
Unknown
Elevation
Unknown
Doppler factor
Unknown
Orbital elements
Apogee altitude
895.953 km
Perigee altitude
820.402 km
Semi-major axis
7,236.315 km
Eccentricity
0.00522
Inclination
98.8454°
RAAN
129.166°
Arg. of periapsis
68.9205°
True anomaly
291.19666°
Mean anomaly
291.7536°
Eccentric anomaly
291.47526°
Mean motion
3.52588 °/min
Orbital period
102.1 mins
BSTAR
0.00016703
Loading maneuver chart data...
Computing Atmospheric mass density...
Loading historical data...
Loading historical data...
Loading historical data...
Loading historical data...
Loading historical data...
Loading historical data...
Loading historical data...

Documentation

Showing up to 5 results
|